Theta_e
298 292 288 288 291 292 293 292 292 299 304 302 300 301 302 304 301 299 300 305 311 314 319 324 326 328 329 330 331 332 332 333 333 334 332 331 330 332 331 332 333 332 332 331
291 287 293 295 293 292 290 289 290 295 299 302 300 298 301 303 304 302 301 301 303 310 315 320 323 325 327 328 330 331 333 334 335 335 334 333 333 333 333 333 333 333 332 332
286 291 296 294 291 289 290 288 289 290 292 292 290 290 296 301 304 305 303 303 303 303 309 312 320 322 325 325 327 330 331 333 334 334 335 333 333 332 330 332 332 334 334 333
288 293 293 291 290 291 286 292 292 291 289 284 291 285 292 297 300 304 305 301 303 303 305 306 310 318 321 323 327 328 330 331 332 334 332 331 330 328 330 332 333 333 334 334
288 289 289 289 290 292 287 293 291 292 288 286 286 283 287 295 295 298 303 299 300 302 303 304 304 306 307 313 316 317 320 327 329 330 333 331 330 330 331 331 331 332 334 335
286 291 291 292 294 292 293 289 289 290 287 279 284 284 285 290 294 295 301 298 297 295 296 297 298 299 299 301 304 307 308 308 310 317 328 329 329 330 328 328 328 331 333 334
285 286 291 291 290 292 289 285 276 277 278 276 286 284 287 294 292 292 293 293 295 297 298 298 298 298 298 299 300 301 301 302 305 307 311 321 327 328 328 328 327 327 329 328
280 276 287 292 290 287 286 285 278 270 274 276 284 280 284 295 297 294 294 294 296 298 299 300 300 300 301 302 302 303 303 303 304 303 305 309 314 323 326 326 327 327 328 329
280 282 291 293 293 292 286 283 288 280 277 277 279 284 288 291 291 292 293 296 296 298 299 300 301 300 301 301 302 301 301 303 303 304 305 306 311 314 314 317 320 323 326 326
282 278 287 291 294 293 289 290 282 280 268 268 277 278 280 285 287 291 293 294 296 297 298 299 299 300 301 301 302 301 301 301 301 301 302 303 304 306 309 314 315 317 319 319
285 283 282 287 287 285 286 284 285 283 279 274 273 276 285 287 289 291 292 294 295 296 296 297 299 300 300 300 300 300 300 299 299 299 299 300 300 301 303 304 306 308 311 312
285 282 278 282 287 291 290 286 286 279 276 278 279 276 288 291 292 292 292 293 294 296 296 297 297 298 298 298 298 298 298 297 297 297 298 298 298 299 300 301 302 302 303 305
285 280 274 279 284 288 286 288 288 286 282 277 274 276 288 291 289 292 291 292 293 294 295 295 295 295 295 296 296 295 296 295 295 294 294 295 296 296 296 297 297 297 298 299
288 281 278 273 277 281 282 286 288 285 276 279 279 280 284 287 288 290 290 292 293 293 294 293 292 292 292 292 292 292 294 294 294 293 293 292 292 294 294 294 293 293 294 294
284 276 279 280 281 282 281 282 284 284 283 278 282 282 284 287 288 289 290 291 291 291 290 290 290 289 289 289 288 289 290 291 291 291 291 291 291 292 291 290 290 290 290 291
285 277 279 275 280 281 280 282 283 284 284 284 284 285 290 288 288 287 289 290 288 289 289 290 290 289 288 288 287 288 287 287 288 289 289 289 289 289 288 288 288 288 288 288
281 278 274 271 277 278 273 278 281 283 285 286 281 286 290 287 288 288 289 288 288 288 289 289 288 288 287 286 287 285 285 285 285 286 286 286 286 286 286 286 285 285 286 287
278 276 274 268 269 264 277 282 282 281 285 285 285 285 286 286 287 289 289 287 288 288 288 288 287 286 286 285 285 284 283 283 283 283 283 283 284 284 284 284 284 284 285 285
281 278 267 266 264 273 276 279 279 278 279 284 284 284 285 286 286 285 288 288 287 287 287 287 286 285 284 283 282 281 280 281 281 282 281 281 282 282 282 283 282 283 283 283
280 281 272 266 262 260 273 280 283 283 272 282 284 284 283 284 278 282 287 287 287 287 287 285 284 284 282 281 280 280 279 280 280 280 280 280 281 281 281 281 282 282 282 283
265 268 263 264 261 269 278 281 283 268 274 283 284 284 283 281 282 286 287 285 285 285 283 284 282 281 280 280 279 279 279 278 279 279 279 279 280 280 280 281 281 281 281 281
268 264 262 263 260 262 280 278 276 282 282 282 283 283 282 282 283 284 284 282 282 282 282 281 279 279 279 279 279 277 277 278 277 277 277 277 277 279 280 279 279 279 279 278
268 275 271 273 272 279 281 280 282 284 283 282 282 283 283 282 282 283 283 282 281 280 281 280 278 277 278 278 278 276 277 277 275 273 272 273 276 278 279 278 278 277 276 276
276 278 273 273 277 280 281 281 282 283 283 283 283 282 282 281 282 282 282 282 281 280 279 278 276 276 276 276 277 276 276 275 271 271 272 274 274 275 276 277 278 276 275 275
277 276 273 274 279 279 281 281 282 282 283 282 282 282 282 281 281 281 281 280 279 278 277 276 275 275 274 275 274 273 275 273 271 271 271 272 274 273 274 275 275 277 277 278
279 277 275 274 279 278 279 280 282 282 281 281 281 280 281 281 281 280 278 278 276 275 274 273 273 273 272 271 271 270 269 269 267 269 270 271 272 272 273 273 273 278 280 281
Wind_Speed
13 10 17 17 17 11 8 12 15 11 13 14 19 15 13 14 8 5 6 9 7 9 10 10 10 10 11 10 12 13 14 14 11 10 8 6 8 7 4 5 7 8 8 10
10 22 14 12 14 16 18 15 10 5 5 13 10 15 12 13 20 6 8 9 9 4 7 9 10 9 9 9 11 11 13 15 13 9 6 6 7 7 6 5 6 7 8 8
20 9 19 18 17 18 18 19 9 7 5 4 3 9 12 11 18 19 11 7 7 6 5 2 8 8 8 8 8 7 8 10 11 10 6 4 3 3 4 6 6 9 8 8
17 21 19 21 19 17 20 12 7 10 8 4 3 7 11 16 17 20 20 8 7 8 7 4 2 6 7 5 7 8 8 8 8 10 7 8 9 8 8 8 8 5 8 10
3 13 19 18 20 15 9 7 12 7 6 5 6 3 5 7 12 17 20 9 8 8 7 4 4 0 5 4 2 2 1 4 6 7 10 8 8 8 6 4 6 8 7 11
10 11 8 20 17 11 4 5 8 6 5 5 10 7 4 7 13 7 13 9 6 9 8 8 7 7 7 8 7 5 5 5 6 5 6 8 9 8 5 6 7 7 8 7
6 8 9 5 21 13 12 11 3 4 6 8 18 9 10 5 6 10 9 9 9 7 9 8 10 9 9 9 8 7 7 7 8 8 7 6 6 7 8 7 5 5 5 4
4 7 12 7 11 14 20 17 6 7 8 4 14 10 8 21 13 10 9 8 10 9 7 8 7 6 7 7 7 7 7 6 7 7 8 6 6 4 4 6 4 4 4 5
3 7 4 12 12 21 18 20 10 4 1 5 7 6 2 7 8 10 12 11 9 8 7 7 6 6 6 6 6 6 6 6 7 6 5 7 6 5 4 6 5 4 4 3
6 8 2 8 11 20 19 19 15 1 5 3 7 5 5 9 11 13 13 12 9 8 7 6 6 6 5 5 5 6 5 6 5 6 5 4 6 6 5 5 6 5 5 3
4 5 2 5 5 14 13 15 10 5 4 5 5 4 4 10 15 16 10 8 7 7 8 6 6 4 6 6 5 5 6 6 6 5 5 5 5 5 5 4 5 5 5 5
2 4 4 7 3 11 18 15 25 10 6 2 3 2 11 17 17 14 9 7 7 8 7 6 7 7 7 6 6 6 6 6 5 5 5 5 5 5 4 4 5 6 6 5
2 2 5 0 3 4 4 9 17 4 3 5 6 4 2 12 11 9 9 7 6 8 8 8 8 8 7 8 7 7 6 5 5 5 5 5 6 6 6 6 6 6 6 5
2 0 2 1 3 3 6 9 6 11 4 3 3 11 7 8 8 8 8 7 7 8 9 8 7 7 7 8 7 7 7 7 6 6 6 6 6 5 4 4 5 5 5 5
3 1 1 1 1 1 2 7 4 4 4 6 3 12 9 8 8 6 8 8 9 9 8 7 6 5 6 6 6 6 6 6 8 6 6 6 6 5 5 5 5 5 4 4
7 1 2 1 1 3 2 5 7 6 4 5 4 7 10 7 5 8 8 9 8 8 7 6 6 6 6 7 6 6 6 7 7 7 7 7 7 6 6 6 6 5 5 5
6 4 4 2 5 4 4 2 2 2 2 2 2 10 10 6 7 7 8 8 7 7 6 6 5 5 6 6 6 8 10 9 8 7 6 7 7 8 7 7 6 6 6 5
5 5 3 2 5 3 4 1 3 2 5 4 6 6 7 7 7 8 8 8 6 6 4 4 3 3 2 2 3 4 6 6 7 7 7 8 9 8 7 6 6 6 5 6
4 2 2 3 1 4 3 3 3 4 3 5 3 6 7 8 6 6 7 6 5 4 3 3 3 3 4 4 5 5 6 6 6 6 7 9 9 10 9 9 7 6 6 6
3 3 3 2 2 3 3 3 3 2 1 2 7 7 8 6 3 4 6 3 4 5 3 4 4 3 4 5 5 6 6 6 6 6 8 8 8 9 10 9 9 5 5 7
2 1 4 3 1 8 1 6 1 7 6 4 8 8 5 4 3 5 4 2 3 2 3 4 5 4 4 4 4 5 5 5 5 5 6 7 8 8 7 8 6 6 7 7
6 6 5 2 3 8 6 3 6 4 4 6 7 6 5 3 0 3 4 1 2 5 5 5 5 5 5 5 3 5 5 5 4 4 6 8 8 7 7 8 7 6 6 6
3 6 4 7 7 4 6 5 3 3 7 6 7 6 6 7 6 7 6 4 2 2 4 3 4 6 4 4 3 5 5 5 5 5 6 6 7 7 7 7 8 6 4 5
5 3 3 4 7 11 8 5 4 5 5 6 6 7 6 6 6 6 3 3 3 3 4 3 5 6 7 5 6 5 6 5 4 8 8 8 8 8 6 4 5 4 5 5
5 3 6 6 11 7 12 8 8 8 7 6 5 6 7 7 5 5 4 4 4 4 3 2 5 6 7 6 7 4 5 5 8 8 8 9 7 6 8 6 5 6 5 6
9 11 9 8 7 7 2 1 7 10 8 9 7 5 5 6 6 5 5 5 4 5 3 3 5 6 7 5 6 5 4 3 5 8 6 6 7 8 7 8 9 12 17 19
Wind_Direction
204 210 211 208 223 249 244 210 212 198 216 188 220 240 251 293 297 287 277 276 233 193 190 171 170 170 176 178 182 185 177 184 191 212 198 200 199 210 213 213 208 195 189 190
249 224 219 227 227 222 242 254 224 173 43 177 208 242 258 270 281 246 240 257 286 249 188 170 164 170 173 178 184 189 185 185 194 200 197 195 207 212 209 210 215 201 196 189
223 242 208 227 224 226 228 233 237 175 122 23 359 254 222 237 254 274 279 263 300 308 267 256 144 166 164 191 184 192 191 188 194 191 186 171 169 212 227 237 211 212 193 194
240 236 250 214 227 220 232 222 246 144 137 178 112 264 220 228 224 238 264 227 238 264 280 273 197 179 173 195 186 190 198 201 195 191 193 188 195 206 221 219 230 214 202 202
212 210 231 227 223 220 247 195 219 149 137 123 170 222 235 263 224 222 226 228 223 227 247 250 245 176 69 60 194 99 46 227 217 199 198 205 199 213 219 204 197 217 223 213
259 299 295 238 222 204 220 272 179 164 98 252 190 184 207 196 215 216 212 161 94 50 34 34 47 53 26 40 29 11 355 322 317 307 234 205 215 216 208 221 214 211 209 208
237 247 241 294 204 188 199 192 134 165 186 229 171 186 236 250 72 90 77 70 68 64 61 36 29 24 26 31 20 11 11 332 323 313 297 287 241 228 228 227 231 233 197 184
249 221 188 215 217 196 202 199 165 172 192 160 152 219 246 227 256 98 91 90 76 66 55 68 51 38 31 29 31 21 14 354 354 348 326 290 306 272 241 240 248 239 209 202
199 236 157 191 204 209 194 214 213 131 79 118 188 239 210 145 117 100 100 89 86 86 79 70 63 60 56 45 42 35 23 17 17 360 355 355 359 17 9 353 354 350 343 332
300 284 341 217 214 234 192 199 213 263 134 199 192 193 208 164 136 120 113 110 105 101 90 87 78 72 66 59 43 46 40 42 28 17 16 4 3 360 350 328 320 315 316 334
283 260 137 1 218 192 196 200 205 183 192 162 132 230 304 148 137 123 110 106 113 99 100 94 91 96 90 75 60 55 44 45 29 19 6 15 9 352 346 344 331 331 326 316
341 303 291 215 206 285 224 209 195 187 230 232 127 345 337 110 113 109 115 120 112 106 98 83 73 60 51 49 42 51 39 39 21 2 358 3 349 344 343 340 349 357 339 340
334 53 327 294 79 255 205 263 192 191 144 190 126 182 55 106 87 86 91 113 91 79 73 64 47 40 36 29 28 25 19 22 10 9 2 356 354 357 350 348 347 345 337 328
300 80 192 84 321 329 327 226 299 200 110 144 155 135 142 122 118 100 89 102 90 81 62 58 43 33 33 26 21 9 8 12 354 353 354 352 342 332 328 333 334 332 326 320
28 130 76 30 86 232 270 359 59 266 182 133 155 149 150 104 98 108 105 96 84 75 74 69 58 36 26 21 13 3 8 357 347 349 349 334 327 325 319 316 311 307 306 299
337 59 16 90 360 270 329 75 16 57 27 70 79 94 94 112 110 85 80 85 84 82 79 67 57 43 19 6 1 353 354 350 347 350 341 336 337 331 313 300 293 288 286 283
348 340 346 73 345 307 29 315 142 118 212 127 164 130 151 127 106 92 102 98 97 92 82 72 52 40 19 356 346 349 344 341 348 344 341 348 345 337 324 313 308 297 286 272
314 341 19 314 9 40 244 277 23 298 211 209 104 113 99 106 95 100 88 107 98 89 76 63 48 32 22 316 16 332 324 326 338 343 348 348 343 333 323 316 303 295 287 279
291 314 41 81 297 272 89 153 167 167 245 204 176 122 110 82 90 74 93 91 101 86 67 43 38 4 343 19 3 346 333 336 337 352 344 336 333 326 325 322 313 298 291 285
327 328 94 11 86 202 214 71 344 300 332 356 161 133 120 129 154 183 129 117 101 70 50 13 356 4 3 350 355 342 330 334 340 348 327 319 317 316 314 309 308 297 284 279
109 9 170 215 285 297 207 163 281 95 207 76 98 108 132 120 132 151 152 119 97 81 14 17 5 340 334 346 349 332 326 330 338 321 313 310 309 305 296 300 301 300 299 287
173 150 189 179 110 268 175 86 167 171 83 122 110 108 104 95 267 183 202 212 325 322 352 10 347 335 335 333 351 322 311 318 316 309 303 300 295 294 301 299 299 286 284 282
271 192 196 181 213 214 193 162 220 166 152 173 157 160 176 205 218 221 226 226 254 304 318 340 335 317 320 332 346 310 303 328 320 304 293 284 287 295 294 301 302 306 292 275
254 230 199 56 270 252 245 252 217 198 184 162 160 171 180 201 229 227 197 254 272 282 303 333 330 315 307 323 323 294 315 318 313 305 311 312 310 309 294 291 287 287 290 292
205 105 192 259 262 300 274 241 210 213 212 176 160 173 193 189 205 208 237 244 253 261 274 285 289 289 289 301 297 308 316 322 316 319 314 310 303 305 306 287 278 290 270 269
188 204 196 223 208 180 242 190 216 198 198 199 182 187 198 176 209 191 216 220 212 230 239 268 267 265 275 282 291 299 292 293 300 307 303 305 308 303 302 304 307 298 298 297